Vorticity
13 13 12 12 12 11 10 10 10 12 14 16 17 16 15 13 13 15 18 22 22 20 18 17 16 11 3 -2 5 12 16 17 19 22 24 25 22 19 18 18 16 15 15 16 19 20 21 19 15 11 8 6 3 8 13 12 9 7 6 6 5 6 7 8 10 11 12 13 13
14 13 13 12 12 11 11 10 10 12 14 18 19 19 18 16 13 11 11 13 12 10 7 7 9 8 7 4 7 9 13 17 24 27 28 26 22 20 18 18 16 15 16 17 19 20 20 18 15 12 9 6 4 8 12 12 9 7 6 5 5 6 7 8 10 11 11 11 12
14 13 13 13 13 13 12 11 11 12 15 19 21 22 21 20 16 12 10 9 9 9 9 9 10 11 11 10 9 10 16 25 29 29 27 25 22 20 19 18 17 16 16 17 19 20 19 18 15 12 9 5 6 9 12 11 9 7 6 5 5 6 7 8 9 10 10 10 11
14 14 14 15 15 14 13 12 12 14 17 20 22 23 24 23 21 17 14 12 11 12 13 14 15 16 16 15 15 19 23 24 21 20 21 24 22 20 19 19 17 16 17 18 19 19 19 18 16 13 9 6 7 10 12 11 9 7 6 5 5 6 7 7 8 9 9 9 11
15 15 15 16 16 16 15 14 14 15 17 19 21 23 25 26 25 22 19 16 14 12 11 11 13 16 19 21 26 25 18 6 9 14 19 22 21 21 20 19 18 17 18 19 20 18 17 18 17 13 9 6 8 11 13 11 9 7 6 6 6 6 6 6 7 8 9 11 13
14 15 16 17 17 17 17 17 15 14 13 14 17 21 25 28 28 27 23 19 14 11 10 10 14 20 27 35 34 24 13 8 12 17 20 21 21 21 21 20 18 18 19 21 20 17 15 18 17 13 8 6 8 11 13 11 9 7 7 6 6 5 5 6 8 10 12 14 16
14 15 15 17 17 18 18 18 14 11 9 8 13 19 24 29 32 33 33 30 26 23 22 24 29 36 42 43 33 25 21 21 19 19 20 20 21 21 21 20 19 19 21 23 18 14 13 18 17 12 7 6 8 11 12 11 9 8 7 6 5 4 5 6 9 11 13 15 16
14 15 15 16 18 19 19 17 13 9 7 6 11 16 21 24 29 33 37 40 40 40 40 41 44 43 39 32 31 29 25 19 18 18 19 20 21 21 21 19 19 20 22 23 13 10 13 19 16 10 6 7 10 11 11 11 9 8 7 5 4 4 5 7 10 12 13 15 15
13 13 14 17 19 21 20 17 13 9 8 10 14 16 18 18 21 25 29 33 35 37 37 38 37 31 25 22 24 23 19 16 16 17 18 19 20 20 20 18 19 21 22 19 9 8 13 19 13 7 4 9 11 11 11 11 9 7 5 3 3 4 5 7 10 12 14 15 14
11 11 13 17 20 21 21 18 14 12 13 15 18 19 19 18 17 18 19 20 21 22 24 27 26 22 18 16 17 16 15 15 16 17 18 19 19 19 18 18 19 22 21 13 8 10 15 18 9 4 4 10 11 10 10 10 9 6 4 2 4 5 6 7 11 14 16 16 15
11 11 12 15 19 21 21 19 16 15 15 16 17 18 18 19 19 18 18 19 19 20 21 22 21 18 14 12 12 12 13 15 16 18 19 19 18 18 17 18 21 23 20 9 8 12 17 16 7 4 6 11 10 9 8 7 7 6 3 2 3 5 7 8 13 16 18 18 16
12 12 12 15 18 20 20 18 15 12 10 9 8 8 9 11 13 15 18 19 20 21 21 20 17 14 12 10 10 11 13 16 18 18 18 17 17 17 17 19 23 22 17 7 10 15 17 12 5 4 6 10 9 8 7 7 7 5 3 3 4 6 9 11 15 17 19 19 16
13 13 14 14 16 17 16 13 9 5 2 -1 -3 -4 -4 -4 -1 4 9 14 16 18 18 17 16 14 13 12 12 13 15 17 17 17 17 15 16 17 19 22 24 20 14 7 14 17 16 8 3 2 5 9 8 7 6 8 7 5 3 3 5 7 10 13 15 17 18 17 10
12 14 16 16 15 14 12 8 3 -1 -5 -6 -8 -9 -10 -10 -9 -4 3 7 9 12 15 16 15 15 15 16 17 18 18 17 14 14 15 16 16 18 21 24 23 17 11 11 17 17 12 4 1 2 6 9 8 6 6 8 7 5 3 4 6 8 11 14 16 17 15 7 -3
9 13 17 19 17 14 10 6 2 -2 -4 -4 -4 -5 -4 -1 1 7 14 14 7 7 11 17 17 16 16 18 20 21 19 16 13 12 14 19 19 20 23 24 20 14 12 17 19 15 8 1 -1 3 7 9 8 7 6 7 5 4 3 4 6 9 12 15 17 16 8 -8 -11
5 11 17 22 21 18 13 9 5 3 1 -0 -1 1 5 12 18 26 32 30 17 10 10 17 20 20 18 19 21 21 19 15 14 14 16 21 20 22 23 22 16 13 15 22 19 12 4 -2 -0 5 10 10 9 7 6 5 4 3 3 5 6 9 12 16 19 14 4 -10 -3
3 8 15 22 24 23 20 16 12 8 6 4 4 8 16 25 29 30 30 27 24 18 14 15 22 23 21 19 20 20 19 17 17 18 19 20 21 22 22 19 14 15 19 23 16 8 1 -1 3 7 10 10 8 7 5 4 3 3 3 5 6 9 13 17 18 11 2 -0 8
6 9 14 21 24 25 25 22 18 14 12 10 13 18 24 31 30 26 20 18 22 23 21 19 23 25 24 20 19 19 19 19 20 20 20 20 22 22 21 17 15 19 22 19 10 4 3 5 7 9 10 9 7 6 4 3 3 3 3 5 7 11 15 19 17 7 -0 5 13
12 13 16 19 22 23 24 24 22 19 17 16 18 20 21 22 21 18 16 17 22 26 27 26 27 25 23 19 19 19 19 20 21 21 21 22 22 22 19 17 19 21 18 9 4 5 8 9 9 9 10 8 6 5 3 3 2 3 4 6 11 15 19 23 20 9 1 5 15
19 18 17 18 18 19 20 20 21 20 19 18 16 14 12 9 9 10 13 17 23 27 30 30 26 23 20 18 18 19 19 21 22 22 23 23 23 22 20 19 19 16 9 -0 3 10 15 12 10 10 9 7 5 4 3 2 2 4 6 11 15 19 22 24 22 14 8 9 14
23 20 18 16 16 16 16 16 17 17 16 15 12 9 7 6 8 11 15 18 23 27 29 28 23 20 18 18 19 20 20 21 22 23 24 25 25 24 22 18 13 5 -2 -5 7 17 22 15 12 10 8 5 4 3 3 3 4 7 10 15 18 19 19 18 16 13 10 10 11
22 20 17 16 15 15 14 14 14 13 13 12 10 9 8 9 13 18 23 25 24 25 26 26 22 19 18 19 20 20 21 21 22 23 25 27 26 23 18 11 1 -8 -11 -4 12 23 25 17 12 8 5 4 3 3 3 4 7 10 12 14 15 14 11 8 6 5 5 6 8
19 19 19 19 18 17 15 14 12 11 10 9 9 9 9 9 12 18 24 29 27 25 23 23 23 22 21 21 22 22 23 23 25 26 27 26 22 16 9 1 -7 -9 -5 7 20 26 26 17 9 4 3 3 3 3 5 7 10 11 11 9 5 3 2 3 3 5 7 8 10
11 16 20 23 23 22 20 18 15 12 9 8 7 7 7 7 8 12 19 26 26 23 20 20 21 22 22 22 22 24 25 26 27 26 25 21 15 10 6 2 2 4 10 17 25 27 23 13 6 3 2 3 3 4 6 9 10 11 9 5 -4 -6 -3 4 4 6 7 9 9
1 8 16 24 27 27 25 22 20 18 15 11 9 8 8 7 8 10 13 16 18 17 15 13 13 15 16 16 16 17 18 20 20 19 18 16 13 12 12 13 13 12 13 18 27 25 17 7 4 3 3 3 4 6 8 9 10 8 7 5 -1 0 6 11 7 5 3 3 5
-4 -1 6 16 20 20 17 15 18 21 22 21 18 15 14 13 13 11 9 6 8 10 11 11 8 7 6 7 8 8 9 9 8 8 8 7 9 10 12 12 8 7 10 20 25 19 10 4 3 3 4 4 6 8 9 9 6 4 4 6 6 8 11 11 8 5 1 -2 2
-0 -4 -3 2 6 5 2 0 7 15 22 26 25 23 21 20 18 15 10 4 4 6 11 14 13 11 8 7 7 7 7 7 7 6 6 4 5 5 5 3 3 7 14 20 17 11 6 3 3 4 5 6 9 10 10 7 3 1 2 6 9 9 8 7 6 3 -1 -3 4
10 3 -2 -5 -1 1 2 2 4 8 14 22 25 25 23 21 19 16 12 8 8 11 16 21 22 21 18 15 14 14 15 15 15 13 11 8 6 4 4 5 8 11 13 13 9 6 4 4 4 6 7 9 9 9 7 6 8 11 11 8 8 7 7 7 6 4 2 1 8
18 14 8 2 3 8 15 19 14 10 9 14 19 20 20 19 18 17 17 17 19 21 24 27 28 27 25 22 21 20 20 19 17 16 14 11 9 8 8 10 11 11 10 8 7 6 6 6 8 9 9 8 7 9 13 20 20 18 15 11 10 11 13 13 11 11 12 15 22
18 19 18 15 11 11 14 19 17 13 10 10 13 15 15 16 17 18 19 20 20 20 20 22 22 22 21 21 21 19 18 17 17 16 15 13 12 11 10 10 9 9 8 7 7 8 8 9 9 8 6 4 5 9 12 12 8 7 7 9 15 20 22 21 20 20 23 27 31
12 16 18 19 14 9 7 9 11 11 11 11 12 13 14 14 16 16 15 11 8 7 8 10 12 12 13 14 15 15 15 14 14 13 13 13 12 10 9 8 8 7 7 7 7 7 7 7 6 6 5 5 6 7 6 5 6 10 17 24 26 27 27 26 25 27 32 37 43
7 10 13 17 15 10 6 4 5 6 8 10 11 13 14 15 16 15 13 7 4 4 6 7 8 10 12 12 12 11 11 11 10 9 9 10 10 9 9 8 7 7 6 6 7 7 8 9 10 11 11 10 7 5 3 2 1 4 9 13 15 22 29 32 34 39 44 45 39
3 4 6 10 12 12 9 5 3 3 4 6 9 12 13 14 14 14 14 12 11 11 12 12 12 12 12 12 11 10 9 8 8 8 9 9 9 9 8 7 6 6 6 7 8 9 11 12 13 12 11 8 5 2 -2 -5 -6 0 9 16 23 34 42 43 40 35 28 19 12
1 2 3 5 8 10 11 10 7 4 2 2 6 10 12 13 13 13 13 13 12 11 11 10 9 9 9 10 10 10 10 9 9 8 8 7 7 7 6 6 7 7 8 7 6 5 4 5 6 7 8 9 11 11 9 7 7 15 25 35 39 41 38 31 21 13 6 3 2
8 9 9 8 7 8 9 11 10 8 5 2 4 8 11 13 13 13 13 12 11 10 8 7 7 7 7 7 7 8 8 7 6 5 5 5 4 4 5 6 9 10 11 10 7 6 6 8 12 15 19 22 23 23 21 19 23 29 35 37 33 25 17 8 4 2 2 3 4
19 20 21 20 16 12 9 9 11 11 9 6 5 6 9 12 12 13 12 12 10 9 7 6 5 5 4 4 3 3 2 2 3 4 5 5 5 5 5 5 5 5 5 6 9 13 17 21 25 29 31 32 31 29 27 27 29 28 23 16 10 5 2 1 2 3 4 5 6
27 28 30 31 29 22 15 8 9 10 11 9 7 6 7 9 10 11 11 11 10 8 6 4 3 2 1 1 -1 -1 -1 1 4 6 7 9 10 10 9 6 6 9 13 19 25 29 31 31 32 32 33 32 29 26 24 22 17 12 6 2 1 1 2 3 5 6 7 8 9
32 34 37 40 40 34 24 11 7 7 8 9 8 8 7 7 7 8 8 9 9 8 7 4 2 -0 -2 -2 -3 -3 -2 0 3 6 9 13 17 19 20 19 22 26 31 34 34 32 29 27 25 23 22 19 17 14 12 9 6 3 1 1 2 4 6 8 9 9 9 9 8
32 36 41 45 47 43 33 19 8 4 3 5 7 7 7 6 6 6 7 7 7 7 6 4 1 -1 -2 -2 -2 -2 -1 1 4 8 11 16 20 25 29 33 33 32 29 25 21 17 15 13 12 11 9 8 7 6 5 4 2 1 2 4 7 9 10 10 9 8 7 6 5
26 32 38 45 49 48 42 30 16 7 2 2 3 4 5 5 5 5 5 4 4 4 4 4 4 5 7 10 13 16 18 21 23 24 24 24 23 25 27 28 22 17 12 8 6 5 5 5 4 4 4 3 3 2 2 3 4 5 7 10 11 10 9 8 6 6 5 5 5
18 24 31 38 44 48 46 40 29 19 11 7 6 6 5 5 5 5 5 5 7 10 14 17 21 25 29 34 38 41 43 43 40 37 32 26 22 19 17 14 9 6 4 3 3 3 3 3 3 3 3 3 4 5 7 9 11 11 11 10 9 7 6 6 5 5 5 6 6
Height
2969 2967 2964 2963 2961 2959 2957 2955 2952 2950 2948 2947 2946 2945 2943 2942 2942 2941 2940 2940 2940 2939 2939 2939 2940 2940 2940 2940 2940 2940 2941 2942 2942 2942 2943 2943 2944 2946 2947 2949 2950 2952 2953 2955 2957 2959 2961 2964 2967 2969 2972 2975 2978 2981 2983 2985 2987 2989 2991 2992 2994 2995 2997 2998 2999 3001 3002 3003 3004
2968 2966 2964 2962 2960 2958 2956 2954 2952 2950 2948 2947 2945 2944 2943 2942 2941 2940 2940 2940 2939 2939 2939 2939 2939 2939 2939 2939 2939 2939 2940 2941 2941 2942 2942 2942 2944 2945 2947 2948 2950 2951 2952 2954 2956 2958 2961 2963 2966 2969 2972 2975 2978 2981 2983 2985 2987 2988 2990 2992 2993 2994 2996 2997 2998 3000 3001 3002 3003
2967 2965 2963 2961 2959 2957 2955 2953 2951 2949 2948 2946 2945 2944 2942 2942 2941 2940 2940 2939 2939 2938 2938 2937 2937 2938 2938 2938 2938 2938 2939 2940 2941 2941 2941 2942 2943 2944 2946 2947 2949 2951 2952 2953 2955 2958 2961 2963 2966 2969 2972 2975 2978 2980 2982 2984 2986 2988 2989 2991 2992 2994 2995 2997 2998 2999 3000 3001 3002
2966 2964 2962 2960 2958 2956 2954 2952 2951 2949 2948 2946 2945 2944 2943 2942 2941 2940 2939 2938 2938 2937 2937 2937 2937 2937 2937 2937 2937 2938 2938 2939 2940 2940 2941 2942 2943 2944 2946 2947 2949 2950 2952 2953 2955 2958 2961 2963 2966 2969 2972 2975 2978 2980 2982 2984 2986 2987 2989 2990 2992 2993 2995 2996 2997 2998 2999 3000 3002
2965 2963 2961 2959 2957 2956 2954 2952 2951 2949 2948 2947 2945 2944 2942 2941 2940 2939 2938 2938 2937 2937 2936 2936 2936 2936 2936 2936 2936 2937 2937 2938 2939 2940 2941 2942 2942 2944 2945 2947 2948 2950 2951 2953 2955 2958 2962 2963 2966 2969 2972 2975 2978 2980 2982 2984 2986 2987 2988 2990 2991 2993 2994 2995 2997 2998 2999 3000 3001
2965 2963 2961 2959 2957 2955 2954 2952 2951 2950 2948 2947 2946 2944 2943 2942 2940 2939 2938 2937 2937 2936 2936 2936 2935 2935 2935 2935 2935 2936 2937 2938 2939 2940 2941 2942 2942 2944 2946 2947 2948 2950 2951 2953 2956 2959 2962 2964 2967 2970 2973 2975 2977 2980 2982 2984 2985 2987 2988 2990 2991 2992 2994 2995 2996 2997 2998 2999 3000
2965 2963 2961 2959 2957 2955 2954 2952 2951 2950 2949 2948 2947 2945 2944 2942 2941 2940 2938 2938 2937 2936 2936 2936 2935 2935 2935 2935 2935 2936 2937 2938 2939 2940 2941 2942 2943 2944 2946 2947 2948 2950 2952 2953 2957 2960 2962 2964 2967 2970 2973 2976 2978 2980 2982 2983 2985 2987 2988 2989 2991 2992 2993 2994 2995 2996 2997 2998 2999
2966 2963 2962 2960 2958 2956 2955 2953 2952 2951 2950 2949 2947 2946 2945 2943 2942 2940 2939 2938 2937 2937 2936 2935 2935 2935 2935 2936 2937 2937 2938 2938 2939 2940 2941 2942 2943 2945 2946 2947 2948 2950 2952 2954 2957 2961 2963 2965 2968 2971 2973 2976 2977 2979 2981 2983 2985 2987 2988 2989 2991 2992 2993 2994 2995 2996 2997 2998 2999
2966 2964 2963 2961 2959 2957 2956 2954 2953 2952 2951 2950 2948 2947 2946 2945 2943 2942 2941 2940 2938 2938 2937 2937 2936 2936 2937 2937 2937 2938 2938 2939 2940 2941 2942 2943 2944 2945 2946 2947 2948 2950 2952 2955 2958 2961 2963 2966 2968 2971 2973 2976 2977 2979 2982 2983 2985 2987 2988 2989 2991 2992 2992 2994 2995 2996 2997 2998 2998
2967 2966 2964 2962 2961 2959 2957 2956 2954 2953 2952 2951 2949 2948 2947 2946 2945 2943 2942 2941 2940 2939 2939 2938 2938 2938 2938 2938 2938 2939 2939 2940 2942 2942 2943 2944 2945 2945 2946 2947 2949 2950 2952 2956 2959 2962 2964 2966 2969 2971 2974 2976 2977 2979 2982 2984 2985 2987 2988 2989 2990 2992 2992 2993 2995 2996 2997 2997 2998
2968 2967 2965 2964 2962 2961 2959 2957 2956 2954 2953 2952 2950 2949 2948 2947 2946 2945 2943 2942 2942 2941 2940 2940 2940 2939 2939 2939 2940 2940 2941 2942 2942 2943 2943 2944 2945 2945 2946 2947 2949 2951 2953 2957 2960 2962 2964 2967 2969 2972 2974 2976 2977 2979 2982 2984 2985 2987 2988 2989 2990 2991 2992 2993 2994 2995 2996 2997 2998
2970 2968 2967 2965 2964 2962 2961 2959 2957 2956 2954 2953 2952 2950 2949 2948 2947 2946 2944 2943 2943 2942 2942 2942 2941 2941 2941 2941 2941 2941 2942 2942 2943 2943 2944 2944 2945 2946 2947 2948 2950 2952 2955 2958 2961 2962 2965 2967 2970 2972 2974 2976 2978 2980 2982 2983 2985 2987 2988 2989 2990 2992 2992 2993 2994 2995 2997 2998 2999
2971 2969 2968 2967 2965 2964 2962 2961 2959 2957 2955 2954 2953 2952 2951 2949 2948 2947 2945 2944 2943 2943 2943 2943 2943 2943 2942 2942 2942 2942 2942 2943 2943 2944 2945 2945 2946 2946 2947 2949 2951 2953 2956 2959 2961 2963 2966 2968 2970 2972 2975 2977 2979 2981 2982 2983 2985 2987 2988 2989 2990 2991 2992 2993 2994 2996 2997 2998 2999
2972 2971 2969 2968 2966 2965 2964 2962 2960 2959 2957 2956 2954 2953 2952 2950 2949 2947 2947 2945 2944 2944 2944 2944 2944 2944 2944 2944 2944 2944 2944 2944 2944 2945 2946 2946 2947 2947 2948 2950 2952 2955 2958 2960 2962 2964 2967 2969 2971 2973 2976 2977 2980 2981 2983 2984 2985 2987 2988 2989 2990 2992 2992 2994 2995 2996 2997 2999 3000
2973 2972 2970 2969 2967 2966 2965 2963 2962 2960 2959 2957 2956 2954 2952 2951 2949 2948 2947 2946 2946 2945 2945 2945 2944 2945 2945 2945 2945 2945 2945 2945 2945 2946 2947 2947 2948 2949 2950 2952 2954 2957 2959 2961 2963 2965 2968 2970 2972 2975 2977 2978 2981 2982 2984 2985 2986 2987 2988 2990 2991 2992 2993 2994 2995 2996 2997 2999 3000
2975 2973 2971 2970 2968 2967 2966 2964 2963 2962 2960 2959 2957 2955 2953 2951 2949 2948 2947 2947 2947 2946 2946 2945 2945 2945 2946 2946 2946 2946 2947 2947 2947 2947 2947 2948 2949 2950 2952 2953 2956 2958 2961 2962 2964 2967 2969 2971 2973 2976 2978 2979 2982 2983 2985 2986 2987 2988 2989 2990 2991 2992 2993 2994 2996 2997 2998 2998 2999
2976 2974 2972 2971 2969 2968 2967 2965 2964 2963 2962 2960 2958 2957 2954 2952 2951 2949 2948 2948 2948 2948 2947 2947 2946 2946 2947 2947 2947 2947 2948 2948 2949 2949 2949 2950 2951 2952 2954 2956 2958 2960 2962 2964 2966 2968 2970 2972 2976 2977 2979 2981 2982 2984 2985 2987 2988 2989 2990 2991 2992 2993 2994 2995 2996 2997 2998 2999 2999
2977 2976 2974 2972 2970 2969 2967 2966 2965 2964 2962 2961 2960 2958 2956 2954 2952 2952 2951 2951 2951 2951 2950 2948 2948 2947 2948 2948 2948 2949 2949 2950 2950 2951 2952 2952 2953 2954 2956 2958 2961 2962 2963 2966 2968 2970 2972 2975 2977 2979 2980 2982 2983 2985 2986 2987 2988 2990 2990 2991 2992 2993 2994 2995 2996 2997 2997 2998 2998
2979 2977 2975 2974 2972 2970 2969 2967 2966 2965 2964 2962 2961 2960 2958 2957 2955 2953 2952 2952 2952 2951 2950 2949 2949 2949 2949 2950 2950 2951 2951 2952 2952 2953 2954 2954 2955 2957 2958 2961 2962 2964 2966 2968 2970 2972 2975 2977 2978 2980 2982 2983 2985 2986 2987 2988 2989 2990 2991 2992 2992 2993 2994 2996 2997 2997 2998 2998 2998
2980 2978 2977 2975 2973 2972 2970 2969 2967 2966 2965 2964 2962 2961 2960 2959 2957 2956 2955 2954 2953 2952 2951 2951 2951 2951 2951 2952 2952 2952 2953 2954 2954 2955 2956 2957 2957 2959 2960 2962 2964 2966 2968 2969 2971 2974 2976 2978 2980 2982 2983 2985 2986 2987 2988 2989 2990 2991 2992 2992 2993 2994 2995 2996 2997 2997 2998 2998 2999
2981 2979 2978 2977 2975 2974 2972 2971 2969 2968 2967 2966 2964 2963 2962 2961 2960 2959 2957 2957 2955 2954 2953 2953 2952 2953 2953 2954 2954 2955 2955 2956 2957 2958 2958 2958 2959 2961 2962 2964 2966 2968 2969 2971 2973 2975 2978 2980 2982 2983 2985 2986 2987 2988 2989 2990 2991 2991 2992 2993 2994 2994 2995 2996 2997 2998 2998 2998 2999
2982 2981 2980 2978 2977 2975 2974 2972 2971 2970 2969 2967 2967 2965 2964 2963 2962 2961 2960 2959 2958 2957 2956 2955 2955 2955 2955 2956 2956 2956 2957 2958 2959 2960 2960 2961 2962 2963 2965 2967 2968 2970 2971 2973 2974 2977 2980 2982 2983 2984 2986 2987 2988 2989 2990 2991 2991 2992 2993 2993 2994 2995 2996 2997 2997 2997 2998 2998 2999
2984 2983 2981 2980 2978 2977 2975 2974 2973 2972 2971 2970 2969 2967 2967 2965 2964 2963 2962 2962 2961 2960 2959 2958 2958 2958 2958 2958 2958 2958 2959 2960 2961 2962 2962 2963 2965 2966 2968 2969 2971 2972 2973 2974 2977 2980 2982 2983 2984 2985 2987 2987 2988 2990 2991 2991 2992 2993 2993 2994 2995 2996 2996 2997 2997 2998 2998 2998 2999
2986 2985 2983 2982 2980 2978 2977 2976 2975 2973 2972 2972 2971 2970 2969 2967 2967 2966 2965 2964 2963 2962 2962 2961 2961 2961 2961 2961 2961 2962 2962 2963 2964 2964 2965 2967 2968 2969 2971 2972 2973 2974 2975 2976 2980 2982 2982 2983 2985 2986 2987 2988 2989 2991 2991 2992 2993 2993 2994 2995 2995 2996 2997 2997 2998 2998 2998 2999 2999
2988 2987 2985 2984 2982 2981 2979 2977 2976 2975 2974 2973 2972 2972 2971 2970 2969 2968 2967 2967 2966 2965 2965 2964 2964 2964 2964 2964 2965 2965 2966 2966 2967 2967 2968 2970 2971 2972 2973 2974 2975 2975 2977 2980 2982 2983 2984 2985 2986 2987 2988 2989 2991 2992 2992 2993 2993 2994 2995 2995 2996 2996 2997 2997 2998 2998 2998 2999 2999
2991 2989 2987 2986 2984 2983 2981 2980 2978 2977 2976 2975 2974 2973 2972 2972 2971 2970 2970 2969 2968 2968 2967 2967 2967 2967 2967 2967 2968 2968 2969 2969 2970 2971 2971 2972 2973 2974 2975 2976 2976 2977 2980 2983 2984 2984 2985 2987 2988 2989 2990 2991 2992 2992 2993 2994 2994 2995 2996 2996 2996 2997 2997 2998 2998 2998 2999 2999 2999
2992 2991 2989 2988 2987 2985 2984 2982 2981 2979 2978 2977 2976 2975 2974 2973 2973 2972 2972 2971 2971 2970 2970 2969 2970 2970 2970 2970 2970 2971 2971 2972 2972 2973 2974 2975 2975 2976 2976 2977 2979 2981 2983 2984 2985 2986 2987 2988 2989 2990 2991 2992 2992 2993 2994 2994 2995 2996 2996 2997 2997 2997 2998 2998 2998 2999 2999 2999 2999
2994 2992 2991 2990 2988 2987 2986 2985 2984 2982 2980 2979 2977 2977 2976 2975 2975 2974 2974 2973 2973 2972 2972 2972 2972 2972 2972 2972 2972 2973 2973 2974 2975 2975 2976 2976 2977 2978 2979 2981 2982 2983 2984 2986 2987 2988 2989 2990 2991 2992 2992 2993 2993 2994 2994 2995 2995 2996 2997 2998 2998 2998 2998 2998 2998 2998 2999 2999 2998
2996 2994 2993 2992 2991 2989 2988 2987 2986 2985 2983 2982 2980 2979 2978 2978 2977 2977 2976 2976 2975 2975 2974 2974 2974 2974 2974 2975 2975 2975 2976 2977 2977 2978 2978 2979 2980 2981 2982 2983 2984 2985 2987 2988 2989 2990 2991 2992 2992 2993 2994 2994 2995 2995 2995 2996 2996 2997 2998 2998 2998 2998 2998 2998 2998 2998 2998 2997 2997
2998 2996 2995 2993 2992 2991 2989 2988 2987 2986 2985 2984 2983 2982 2981 2981 2980 2979 2979 2978 2978 2977 2977 2977 2977 2977 2977 2978 2978 2978 2978 2979 2979 2980 2981 2982 2982 2983 2984 2985 2987 2987 2989 2990 2991 2992 2992 2993 2994 2994 2995 2995 2996 2997 2997 2997 2997 2997 2998 2998 2998 2998 2998 2997 2997 2997 2997 2997 2997
3000 2998 2997 2996 2994 2993 2992 2990 2989 2988 2987 2986 2985 2985 2984 2983 2982 2982 2982 2982 2982 2982 2982 2982 2981 2981 2981 2981 2981 2981 2982 2982 2982 2983 2983 2984 2985 2986 2987 2988 2989 2990 2990 2991 2992 2993 2993 2994 2995 2996 2996 2997 2997 2997 2997 2997 2998 2998 2998 2998 2998 2998 2998 2998 2998 2998 2998 2998 2998
3001 3000 2999 2998 2997 2995 2994 2992 2991 2990 2990 2989 2988 2987 2987 2986 2985 2985 2984 2984 2985 2985 2985 2984 2984 2983 2983 2983 2983 2984 2984 2984 2985 2986 2986 2987 2988 2988 2989 2990 2990 2991 2992 2993 2994 2994 2995 2996 2996 2997 2997 2997 2998 2998 2998 2999 2999 2999 2999 2999 2998 2998 2998 2998 2999 2999 2999 3000 3000
3003 3002 3001 3000 2999 2997 2996 2995 2994 2993 2992 2991 2991 2990 2989 2989 2988 2987 2987 2987 2987 2987 2987 2987 2987 2986 2986 2986 2987 2987 2987 2987 2988 2988 2989 2990 2990 2991 2991 2992 2993 2993 2994 2995 2996 2996 2997 2997 2997 2998 2998 2998 2998 2999 2999 3000 3000 3000 3000 2999 2999 2999 3000 3000 3000 3001 3001 3001 3001
3004 3003 3002 3001 3000 2999 2998 2997 2996 2996 2995 2994 2993 2992 2992 2991 2991 2990 2990 2990 2990 2990 2990 2990 2990 2990 2990 2990 2990 2990 2990 2991 2991 2991 2992 2992 2993 2993 2994 2994 2995 2996 2996 2997 2997 2998 2998 2999 2999 2999 3000 3000 3000 3000 3000 3001 3001 3001 3001 3000 3000 3001 3001 3001 3002 3002 3002 3002 3002
3005 3004 3003 3002 3001 3001 3000 2999 2998 2998 2997 2997 2996 2995 2994 2994 2993 2993 2993 2993 2993 2993 2993 2992 2992 2992 2992 2992 2993 2993 2993 2994 2994 2994 2995 2995 2996 2996 2996 2997 2997 2997 2998 2998 2999 2999 3000 3000 3000 3000 3000 3000 3001 3001 3001 3002 3002 3002 3002 3002 3002 3002 3002 3002 3002 3003 3003 3004 3004
3006 3005 3003 3002 3002 3002 3001 3001 3000 3000 2999 2999 2998 2997 2997 2996 2996 2996 2996 2996 2996 2995 2995 2995 2995 2995 2995 2995 2995 2996 2996 2996 2997 2997 2997 2997 2998 2998 2998 2999 2999 2999 3000 3000 3000 3000 3000 3001 3001 3001 3001 3002 3002 3002 3002 3003 3003 3003 3003 3003 3004 3004 3004 3004 3004 3004 3005 3006 3006
3007 3005 3004 3003 3002 3002 3002 3002 3002 3002 3001 3001 3000 3000 2999 2998 2998 2998 2998 2998 2998 2998 2997 2997 2997 2997 2997 2997 2997 2998 2998 2998 2998 2998 2999 2999 2999 3000 3000 3000 3000 3001 3001 3001 3002 3002 3002 3002 3002 3002 3003 3003 3003 3003 3004 3004 3004 3005 3005 3005 3005 3005 3005 3006 3006 3007 3007 3007 3008
3008 3006 3004 3003 3002 3002 3003 3003 3003 3003 3003 3003 3002 3002 3002 3001 3001 3001 3001 3001 3000 3000 3000 3000 3000 3000 3000 3000 3000 3000 3000 3000 3000 3000 3000 3001 3001 3001 3001 3001 3001 3002 3002 3003 3003 3003 3003 3003 3004 3004 3005 3005 3005 3005 3006 3006 3006 3006 3007 3007 3007 3007 3007 3008 3008 3008 3009 3009 3009
3010 3008 3006 3004 3003 3003 3003 3004 3004 3005 3005 3005 3004 3004 3004 3004 3003 3003 3003 3003 3003 3003 3002 3002 3002 3002 3002 3002 3002 3002 3002 3002 3002 3002 3002 3002 3002 3002 3002 3002 3003 3003 3004 3004 3004 3005 3005 3005 3006 3006 3007 3007 3007 3007 3007 3008 3008 3008 3008 3009 3009 3009 3009 3010 3010 3010 3011 3011 3011
3012 3010 3008 3007 3005 3005 3005 3005 3006 3006 3007 3007 3007 3007 3006 3006 3006 3006 3006 3006 3006 3005 3005 3005 3004 3004 3004 3004 3004 3003 3003 3003 3003 3003 3003 3004 3004 3004 3005 3005 3005 3005 3005 3006 3006 3006 3007 3007 3008 3008 3008 3009 3009 3009 3010 3010 3010 3010 3011 3011 3011 3011 3012 3012 3012 3012 3012 3012 3012
3016 3014 3012 3010 3008 3007 3007 3007 3008 3008 3009 3009 3009 3009 3009 3009 3009 3009 3009 3008 3008 3008 3007 3007 3007 3007 3006 3006 3005 3005 3005 3005 3005 3005 3006 3006 3006 3007 3007 3007 3007 3007 3007 3008 3008 3009 3009 3010 3010 3011 3011 3011 3011 3012 3012 3012 3012 3012 3012 3013 3013 3013 3013 3013 3013 3013 3013 3013 3012